sat.trackr.live / text

‹ back to catalog

ONEWEB-0363

NORAD 49289 · 2021-090L

PAYLOAD ACTIVE UNKNOWN

§ Identity

Operator
Country
UK
Launch date
2021-10-14
Launch site
VOSTO
Launch vehicle
Mass (kg)
RCS (m²)

Purposes: comms

External: N2YO · Heavens-Above · Gunter

§ Orbital elements

Epoch: 2026-09-19T22:27:29.561184Z

Period
109.03 min
Inclination
87.9142°
Eccentricity
0.0002284
Mean motion
13.20771464 rev/d
Perigee alt
1,180.0 km
Apogee alt
1,183.5 km
Semi-major
7,559.9 km
B*
2.8504e-4
RAAN
255.5371°
Arg perigee
91.2266°
Mean anomaly
268.9129°
Rev number
24,281

§ Raw data

ONEWEB-03631 49289U 21090L   26262.93575881  .00000129  00000+0  28504-3 0  99912 49289  87.9142 255.5371 0002284  91.2266 268.9129 13.20771464242814

JSON: /api/v1/satellites/49289 · /tle

For live sub-satellite position, see the globe view (requires WebGL).

§ Visibility from observer

Set your observer location to see the next 7 days of passes ≥ 10°. The values pass through the URL so the page stays shareable.

No JS? Fill the form by hand. The geolocation button needs JavaScript.